Location: Newark
(29.9790°N, 31.1340°E)
Time: 15:59:22
(UTC+00:00)

Tiros 1 - Pass Details

Date: 27 January 2020
Orbit: 630 x 664 km, 48.4° (Epoch: 16 February)

Event Time Altitude Azimuth Distance (km) Brightness Sun altitude
Rises 17:01:38 0° 305° (NW) 2,979 11.2 -20.4°
Reaches altitude 10° 17:04:01 10° 300° (WNW) 2,069 10.4 -20.9°
Maximum altitude 17:08:38 49° 226° (SW) 849 8.0 -21.9°
Enters shadow 17:12:01 17° 157° (SSE) 1,628 9.0 -22.6°
